FW0435 Weather Reports


Display with metric or nautical units.
time (UTC)temp
F
wind
direction
speed
MPH
gust
MPH
rain 1hr
in
rain 24hr
in
rain mn
in
humidity
%
barometer
mb
20260831151549 82 303 0.0 2.0 0.00 0.00 0.00 79 1021.1
20260831150053 81 345 1.0 4.0 0.00 0.00 0.00 80 1021.3
20260831144549 80 138 0.0 3.0 0.00 0.00 0.00 81 1021.0
20260831143044 80 272 0.0 3.0 0.00 0.00 0.00 81 1020.8
20260831141544 81 124 1.0 5.0 0.00 0.00 0.00 80 1020.9
20260831140039 77 314 1.0 2.0 0.00 0.00 0.00 83 1021.1
20260831134535 76 339 0.0 0.0 0.00 0.00 0.00 86 1020.9
20260831133035 75 3 0.0 2.0 0.00 0.00 0.00 89 1020.9
20260831131529 74 198 0.0 0.0 0.00 0.00 0.00 93 1020.9
20260831130027 74 198 0.0 0.0 0.00 0.00 0.00 95 1020.8
20260831124544 73 198 0.0 0.0 0.00 0.00 0.00 95 1020.9
20260831123022 72 198 0.0 0.0 0.00 0.00 0.00 95 1020.9
20260831121522 72 198 0.0 0.0 0.00 0.00 0.00 95 1020.8
20260831120019 71 198 0.0 0.0 0.00 0.00 0.00 95 1020.7
20260831114533 69 198 0.0 0.0 0.00 0.00 0.00 95 1020.7
20260831113016 69 198 0.0 0.0 0.00 0.00 0.00 95 1020.6
20260831111513 68 198 0.0 0.0 0.00 0.00 0.00 95 1020.5
20260831110012 68 198 0.0 0.0 0.00 0.00 0.00 95 1020.1
20260831104519 68 198 0.0 0.0 0.00 0.00 0.00 95 1020.2
20260831103012 68 198 0.0 0.0 0.00 0.00 0.00 94 1020.0
20260831101510 68 198 0.0 0.0 0.00 0.00 0.00 95 1019.9
20260831100009 68 198 0.0 0.0 0.00 0.00 0.00 94 1020.0
20260831094508 68 198 0.0 0.0 0.00 0.00 0.00 94 1019.8
20260831093008 68 200 0.0 0.0 0.00 0.00 0.00 94 1019.9
20260831091507 67 200 0.0 0.0 0.00 0.00 0.00 94 1019.8
20260831090008 67 195 0.0 0.0 0.00 0.00 0.00 94 1019.7
20260831084510 67 190 0.0 0.0 0.00 0.00 0.00 94 1019.7
20260831083005 67 195 0.0 0.0 0.00 0.00 0.00 94 1019.7
20260831081505 67 190 0.0 0.0 0.00 0.00 0.00 94 1019.7
20260831080003 67 190 0.0 0.0 0.00 0.00 0.00 94 1019.6
20260831074503 67 190 0.0 0.0 0.00 0.00 0.00 94 1019.6
20260831073003 67 191 0.0 0.0 0.00 0.00 0.00 94 1019.4
20260831071508 67 186 0.0 0.0 0.00 0.00 0.00 94 1019.2
20260831070100 67 229 0.0 0.0 0.00 0.00 0.00 94 1019.5
20260831064559 67 229 0.0 0.0 0.00 0.00 0.00 94 1019.3
20260831063058 68 229 0.0 0.0 0.00 0.00 0.00 94 1019.4
20260831061556 67 229 0.0 0.0 0.00 0.00 0.00 94 1019.5
20260831060057 67 229 0.0 0.0 0.00 0.00 0.00 94 1019.6
20260831054553 68 229 0.0 0.0 0.00 0.00 0.00 94 1019.6
20260831053052 68 229 0.0 0.0 0.00 0.00 0.00 93 1019.8
20260831051549 68 229 0.0 0.0 0.00 0.00 0.00 93 1019.8
20260831044602 69 229 0.0 0.0 0.00 0.00 0.00 93 1019.9
20260831043045 69 229 0.0 0.0 0.00 0.00 0.00 93 1020.0
20260831041543 70 229 0.0 1.0 0.00 0.00 0.00 93 1020.0
20260831040041 70 229 0.0 0.0 0.00 0.00 0.00 93 1020.0
20260831034540 70 229 0.0 0.0 0.00 0.00 0.00 93 1020.1
20260831033040 70 229 0.0 0.0 0.00 0.00 0.00 93 1020.3
20260831031545 70 229 0.0 0.0 0.00 0.00 0.00 93 1020.3
20260831030039 70 230 0.0 0.0 0.00 0.00 0.00 93 1020.4
20260831024605 70 229 0.0 0.0 0.00 0.00 0.00 93 1020.4
20260831023038 70 229 0.0 0.0 0.00 0.00 0.00 93 1020.4
20260831021537 70 247 0.0 0.0 0.00 0.00 0.00 92 1020.5
20260831020100 70 247 0.0 1.0 0.00 0.00 0.00 92 1020.7
20260831014552 70 247 0.0 0.0 0.00 0.00 0.00 92 1020.7
20260831013037 70 247 0.0 0.0 0.00 0.00 0.00 92 1020.8
20260831011538 70 247 0.0 0.0 0.00 0.00 0.00 91 1020.7
20260831010045 71 247 0.0 0.0 0.00 0.00 0.00 90 1020.6
20260831004536 71 247 0.0 0.0 0.00 0.00 0.00 89 1020.4
20260831003035 72 247 0.0 0.0 0.00 0.00 0.00 89 1020.3
20260831001540 73 247 0.0 0.0 0.00 0.00 0.00 88 1019.8
20260831000033 74 249 0.0 1.0 0.00 0.00 0.00 87 1019.8
20260830234550 75 165 0.0 4.0 0.00 0.00 0.00 86 1019.8
20260830233034 76 266 0.0 5.0 0.00 0.00 0.00 85 1019.5
20260830231532 78 205 0.0 3.0 0.00 0.00 0.00 84 1019.4
20260830230037 78 149 0.0 3.0 0.00 0.00 0.00 85 1019.4
20260830224537 78 274 0.0 4.0 0.00 0.00 0.00 84 1019.3
20260830223031 80 306 0.0 6.0 0.00 0.00 0.00 83 1019.4
20260830221530 81 332 0.0 0.0 0.00 0.00 0.00 84 1019.5
20260830220032 81 332 0.0 0.0 0.00 0.00 0.00 83 1019.3
20260830214529 83 332 0.0 0.0 0.00 0.00 0.00 81 1019.0
20260830213029 85 333 0.0 0.0 0.00 0.00 0.00 79 1019.1
20260830211528 86 333 0.0 0.0 0.00 0.00 0.00 76 1019.0
20260830210030 87 9 0.0 0.0 0.00 0.00 0.00 76 1019.0
20260830204527 84 328 0.0 2.0 0.00 0.00 0.00 82 1019.0
20260830203025 85 291 0.0 1.0 0.00 0.00 0.00 78 1019.4
20260830201554 85 323 2.0 5.0 0.00 0.00 0.00 77 1019.6
20260830200022 84 4 3.0 8.0 0.00 0.00 0.00 77 1020.0
20260830194523 84 266 0.0 0.0 0.00 0.00 0.00 78 1019.6
20260830193021 84 140 1.0 4.0 0.00 0.00 0.00 77 1019.7
20260830191521 87 283 1.0 5.0 0.00 0.00 0.00 73 1020.0
20260830190021 88 174 0.0 5.0 0.00 0.00 0.00 75 1020.0
20260830184513 86 204 2.0 6.0 0.00 0.00 0.00 75 1020.3
20260830183011 86 141 1.0 4.0 0.00 0.00 0.00 77 1020.6
20260830181512 84 159 2.0 4.0 0.00 0.00 0.00 77 1020.9
20260830180005 83 221 0.0 6.0 0.00 0.00 0.00 80 1021.0
20260830174505 83 110 0.0 4.0 0.00 0.00 0.00 80 1021.2
20260830173001 83 143 2.0 8.0 0.00 0.00 0.00 80 1021.5
20260830171612 83 85 2.0 6.0 0.00 0.00 0.00 80 1021.6
20260830170056 82 119 1.0 13.0 0.00 0.00 0.00 82 1021.8
20260830164553 81 274 2.0 9.0 0.00 0.00 0.00 81 1022.1
20260830163056 81 186 1.0 6.0 0.00 0.00 0.00 83 1022.4
20260830161548 79 248 3.0 9.0 0.00 0.00 0.00 84 1022.4
20260830160045 78 208 1.0 9.0 0.00 0.00 0.00 84 1022.6
20260830154544 76 139 0.0 6.0 0.00 0.00 0.00 86 1022.9
20260830153046 77 141 1.0 9.0 0.00 0.00 0.00 84 1022.8